Maxwell AFB, AL

4:49 PM CST on January 21, 2019 (GMT -0600)
Maxwell Air Force Base

Weather History for KMXF - January, 2019

Change the Weather History Date:

Saturday, January 12, 2019

  Actual Average Record
Temperature  
Mean Temperature 51 °F -  
Max Temperature 59 °F 56 °F 77 °F (2000)
Min Temperature 43 °F 36 °F 23 °F (2011)
Degree Days  
Heating Degree Days 14    
Growing Degree Days 1 (Base 50)    
Moisture  
Dew Point 47 °F    
Average Humidity 77    
Maximum Humidity 100    
Minimum Humidity 58    
Precipitation  
Precipitation 0.15 in - - ()
Sea Level Pressure  
Sea Level Pressure 30.09 in    
Wind  
Wind Speed 7 mph (ESE)    
Max Wind Speed 15 mph    
Max Gust Speed 21 mph    
Visibility 9 miles    
Events Rain    
Averages and records for this station are not official NWS values.
T = Trace of Precipitation, MM = Missing Value Source: NWS Daily Summary

Daily Weather History Graph

Daily Weather History Graph

Search for Another Location

Airport or City:

Astronomy

Jan. 12, 2019 Rise Set
Actual Time 6:47 AM CST 5:00 PM CST
Civil Twilight 6:20 AM CST 5:26 PM CST
Nautical Twilight 5:50 AM CST 5:57 PM CST
Astronomical Twilight 5:20 AM CST 6:26 PM CST
Moon 10:48 AM CST (1/12) 11:00 PM CST (1/12)
Length of Visible Light 11h 05m
Length of Day
10h 12m
Waxing Crescent, 35% of the Moon is Illuminated
Jan 12
Waxing Crescent
Jan 14
First Quarter
Jan 20
Full
Jan 27
Last Quarter
Feb 4
New

Hourly Weather History & Observations

Time (CST) Temp. Windchill Dew Point Humidity Pressure Visibility Wind Dir Wind Speed Gust Speed Precip Events Conditions
12:56 AM 43.2 °F 41.5 °F 35.1 °F 73% 30.21 in 10.0 mi NNE 3.5 mph - N/A   Mostly Cloudy
1:56 AM 45.7 °F 43.4 °F 33.4 °F 62% 30.22 in 10.0 mi ENE 4.6 mph - N/A   Overcast
2:56 AM 46.6 °F - 33.1 °F 59% 30.21 in 10.0 mi East 8.1 mph - N/A   Overcast
3:56 AM 47.1 °F - 33.6 °F 59% 30.20 in 10.0 mi East 6.9 mph - N/A   Overcast
4:56 AM 47.1 °F - 34.0 °F 60% 30.19 in 10.0 mi East 9.2 mph - N/A   Overcast
5:56 AM 47.5 °F - 33.8 °F 59% 30.19 in 10.0 mi ESE 10.4 mph - N/A   Overcast
6:56 AM 47.7 °F - 33.6 °F 58% 30.21 in 10.0 mi ESE 11.5 mph - N/A   Overcast
7:56 AM 48.2 °F - 34.2 °F 58% 30.21 in 10.0 mi ESE 11.5 mph - N/A   Overcast
8:56 AM 49.6 °F - 36.0 °F 59% 30.24 in 10.0 mi East 6.9 mph - N/A   Overcast
9:56 AM 51.3 °F - 37.4 °F 59% 30.25 in 10.0 mi ENE 4.6 mph - N/A   Overcast
10:56 AM 53.2 °F - 39.2 °F 59% 30.21 in 10.0 mi East 6.9 mph - N/A   Overcast
11:56 AM 53.4 °F - 39.9 °F 60% 30.16 in 10.0 mi East 9.2 mph - N/A   Overcast
12:56 PM 54.9 °F - 42.1 °F 62% 30.12 in 10.0 mi East 6.9 mph - N/A   Overcast
1:03 PM 55.4 °F - 42.8 °F 63% 30.11 in 10.0 mi East 9.2 mph - N/A Rain Light Rain
1:09 PM 55.4 °F - 42.8 °F 63% 30.10 in 10.0 mi East 15.0 mph - N/A   Overcast
1:10 PM 55.4 °F - 42.8 °F 63% 30.10 in 10.0 mi ESE 13.8 mph - N/A Rain Light Rain
1:20 PM 55.4 °F - 42.8 °F 63% 30.10 in 10.0 mi East 8.1 mph - N/A   Overcast
1:56 PM 56.1 °F - 44.1 °F 64% 30.10 in 10.0 mi ESE 8.1 mph - 0.00 in   Overcast
2:26 PM 57.2 °F - 44.6 °F 63% 30.08 in 10.0 mi ESE 9.2 mph - N/A Rain Light Rain
2:38 PM 57.2 °F - 46.4 °F 67% 30.08 in 10.0 mi ESE 10.4 mph - N/A   Overcast
2:56 PM 56.7 °F - 45.5 °F 66% 30.06 in 10.0 mi East 9.2 mph - 0.00 in   Overcast
3:13 PM 57.2 °F - 46.4 °F 67% 30.07 in 10.0 mi East 11.5 mph - N/A Rain Light Rain
3:35 PM 57.2 °F - 46.4 °F 67% 30.06 in 10.0 mi East 8.1 mph - N/A   Overcast
3:56 PM 56.8 °F - 47.1 °F 70% 30.07 in 10.0 mi ESE 6.9 mph - 0.00 in   Overcast
4:11 PM 57.2 °F - 48.2 °F 72% 30.05 in 10.0 mi East 8.1 mph - N/A   Light Drizzle
4:21 PM 57.2 °F - 48.2 °F 72% 30.05 in 10.0 mi East 9.2 mph - N/A   Overcast
4:56 PM 57.0 °F - 48.4 °F 73% 30.05 in 10.0 mi ESE 6.9 mph - 0.00 in   Overcast
4:59 PM 57.2 °F - 48.2 °F 72% 30.05 in 10.0 mi ESE 9.2 mph - N/A   Light Drizzle
5:56 PM 55.4 °F - 50.7 °F 84% 30.04 in 10.0 mi ESE 10.4 mph - 0.01 in   Light Drizzle
5:57 PM 55.4 °F - 51.8 °F 88% 30.04 in 10.0 mi ESE 10.4 mph - N/A   Overcast
5:58 PM 55.4 °F - 51.8 °F 88% 30.03 in 10.0 mi ESE 10.4 mph - N/A   Light Drizzle
6:56 PM 56.1 °F - 52.3 °F 87% 30.03 in 10.0 mi ESE 8.1 mph - 0.02 in Rain Light Rain
7:43 PM 55.4 °F - 53.6 °F 94% 30.02 in 10.0 mi SE 4.6 mph - N/A   Overcast
7:45 PM 55.4 °F - 53.6 °F 94% 30.02 in 10.0 mi SSE 3.5 mph - N/A Rain Light Rain
7:56 PM 56.3 °F - 54.0 °F 92% 30.02 in 10.0 mi Calm Calm - 0.04 in Rain Light Rain
8:26 PM 57.2 °F - 55.4 °F 94% 30.05 in 10.0 mi WSW 4.6 mph 20.7 mph N/A Rain Light Rain
8:41 PM 59.0 °F - 57.2 °F 94% 30.04 in 8.0 mi SW 4.6 mph - N/A Rain Rain
8:56 PM 59.2 °F - 57.4 °F 94% 30.04 in 6.0 mi SW 4.6 mph - 0.06 in Rain Light Rain
9:09 PM 59.0 °F - 57.2 °F 94% 30.04 in 10.0 mi South 5.8 mph - N/A   Overcast
9:10 PM 59.0 °F - 59.0 °F 100% 30.04 in 10.0 mi South 5.8 mph - N/A Rain Light Rain
9:55 PM 57.2 °F - 57.2 °F 100% 30.04 in 7.0 mi NNW 3.5 mph - N/A Rain Light Rain
9:56 PM 57.4 °F - 56.3 °F 96% 30.04 in 7.0 mi NW 3.5 mph - 0.02 in   Overcast
10:11 PM 57.2 °F - 57.2 °F 100% 30.05 in 7.0 mi WNW 4.6 mph - N/A   Overcast
10:26 PM 59.0 °F - 57.2 °F 94% 30.05 in 10.0 mi Calm Calm - N/A   Overcast
10:56 PM 57.2 °F - 56.3 °F 97% 30.05 in 2.2 mi Calm Calm - N/A   Overcast
11:11 PM 57.2 °F - 57.2 °F 100% 30.04 in 2.5 mi Calm Calm - N/A   Overcast
11:21 PM 57.2 °F - 55.4 °F 94% 30.04 in 0.6 mi Calm Calm - N/A   Overcast
11:36 PM 55.4 °F - 55.4 °F 100% 30.04 in 1.2 mi Calm Calm - N/A   Overcast
11:51 PM 55.4 °F - 55.4 °F 100% 30.04 in 3.0 mi Calm Calm - N/A   Overcast
11:56 PM 55.4 °F - 54.5 °F 97% 30.04 in 2.5 mi Calm Calm - N/A   Mostly Cloudy